International Skating Union - Official Site

Essent ISU World Cup Berlin
March 9-11, 2012

Draw | Lap Times | Index | World Cup

Referee: Tapani  POTKA  (FIN)
Starter: Sebastiaan  ZAMANI  (SWE)
StartTime: EndTime: Air Temp: Ice Temp: Humidity:
13.7 ℃ -5.2 ℃ 33.7%
Result Team Pursuit Ladies
Rankings as of Mar 11 2012 3:31PM
Rank: No.: Team: Nation: Time: Behind: Points:
Total 4
1 2 Canada (206) Cindy KLASSEN (202) Christine NESBITT (205) Brittany SCHUSSLER (0)   CAN CAN 3:01.030.5 - 18.94 - (18.9)
1.0 - 32.87 - (13.9)
1.5 - 46.85 - (13.9)
2.0 - 1:00.98 - (14.1)
2.5 - 1:15.47 - (14.4)
3.0 - 1:29.85 - (14.3)
3.5 - 1:44.69 - (14.8)
4.0 - 1:59.54 - (14.8)
4.5 - 2:14.65 - (15.1)
5.0 - 2:30.08 - (15.4)
5.5 - 2:45.53 - (15.4)
6.0 - 3:01.03 - (15.5)
150
2 3 Korea (216) Bo-Reum KIM (217) Ju-Youn LEE (218) Seon-Yeong NOH (0)   KOR KOR 3:03.290.5 - 19.03 - (19.0)
1.0 - 33.56 - (14.5)
1.5 - 47.58 - (14.0)
2.0 - 1:02.18 - (14.6)
2.5 - 1:16.68 - (14.5)
3.0 - 1:31.48 - (14.7)
3.5 - 1:46.33 - (14.8)
4.0 - 2:01.66 - (15.3)
4.5 - 2:16.72 - (15.0)
5.0 - 2:32.30 - (15.5)
5.5 - 2:47.46 - (15.1)
6.0 - 3:03.29 - (15.8)
2.26 120
3 1 Russia (240) Yekaterina LOBYSHEVA (241) Yekaterina SHIKHOVA (242) Yuliya SKOKOVA (0)   RUS RUS 3:04.510.5 - 18.68 - (18.6)
1.0 - 33.30 - (14.6)
1.5 - 47.85 - (14.5)
2.0 - 1:02.45 - (14.6)
2.5 - 1:17.13 - (14.6)
3.0 - 1:31.47 - (14.3)
3.5 - 1:46.35 - (14.8)
4.0 - 2:01.58 - (15.2)
4.5 - 2:17.33 - (15.7)
5.0 - 2:33.02 - (15.6)
5.5 - 2:48.71 - (15.6)
6.0 - 3:04.51 - (15.7)
3.48 105
4 4 Poland (236) Natalia CZERWONKA (237) Katarzyna WOZNIAK (238) Luiza ZLOTKOWSKA (0)   POL POL 3:13.530.5 - 23.58 - (23.5)
1.0 - 55.79 - (32.1)
1.5 - 3:13.53 - (15.1)
12.50 90